Regional Weather Roundup
Issued by NWS

Home | Current Version | Previous Version | Text Only | Print | Product List | Glossary On
Versions: 1 2 3 4 5 6 7 8 9 10 11 12 13 14 15 16 17 18 19 20 21 22 23 24 25 26 27 28 29 30 31 32 33 34 35 36 37 38 39 40 41 42 43 44 45 46 47 48 49 50
000
ASUS44 KFWD 270803
RWRTX
NORTH TEXAS HOURLY WEATHER ROUNDUP
NATIONAL WEATHER SERVICE FORT WORTH TX
300 AM CDT SAT AUG 27 2016

NOTE: "FAIR" INDICATES FEW OR NO CLOUDS BELOW 12,000 FEET WITH NO
SIGNIFICANT WEATHER AND/OR OBSTRUCTIONS TO VISIBILITY.

TXZ118-119-270900-
DALLAS/FORT WORTH METROPLEX

CITY           SKY/WX    TMP DP  RH WIND       PRES   REMARKS
DFW AIRPORT    MOCLDY    77  71  82 SW8       29.98F
DALLAS LOVE    CLOUDY    77  72  84 CALM      29.98F
FTW MEACHAM    MOCLDY    76  71  85 W3        30.00R
DAL-EXECUTIVE  MOCLDY    74  73  97 CALM      29.99S
FTW-ALLIANCE   MOCLDY    73  70  90 SW3       29.99S
FTW-NAS-JRB    PTCLDY    76  70  82 W7        30.00
FTW-SPINKS     PTCLDY    73  71  91 SW3       30.01F
ARLINGTON      PTCLDY    75  71  87 SW3       29.99F
GRAND PRAIRIE  PTCLDY    75  71  85 SW5       30.00F
ADDISON        CLOUDY    76  73  90 CALM      30.01S
MESQUITE       CLOUDY    72  71  99 CALM      29.99S
LANCASTER      MOCLDY    74  71  90 CALM      29.99F
$$

TXZ091>094-102>105-117-120-121-131>134-270900-
NORTH CENTRAL TEXAS

CITY           SKY/WX    TMP DP  RH WIND       PRES   REMARKS
SHRMAN/DENISON NOT AVBL
GAINESVILLE      N/A     71  68  92 CALM      30.02S
BOWIE          PTCLDY    73  70  93 S3        30.01F
BRIDGEPORT     CLOUDY    72  72 100 CALM      30.02F
DECATUR        MOCLDY    73  70  92 SW6       30.01S
DENTON         MOCLDY    72  70  93 CALM      29.99F
MCKINNEY       PTCLDY    72  70  93 CALM      30.00R
GREENVILLE     PTCLDY    72  70  94 CALM      30.01S FOG
ROCKWALL       MOCLDY    73  73  97 CALM      29.99R
TERRELL        PTCLDY    72  70  93 NE3       30.00R
WAXAHACHIE     MOCLDY    72  72 100 CALM      30.00S FOG
CLEBURNE         N/A     72  72 100 S3        30.02S
GRANBURY       MOCLDY    74  71  88 CALM      30.01F
$$

TXZ083>090-098>101-113>116-127>130-139>142-154-155-270900-
WESTERN NORTH TEXAS

CITY           SKY/WX    TMP DP  RH WIND       PRES   REMARKS
WICHITA FALLS  CLOUDY    74  69  85 S7        30.00F
WF-KICKAPOO    CLOUDY    76  70  80 S6        30.02F
VERNON         PTCLDY    76  65  70 S6        30.02F
ABILENE        CLOUDY    73  69  87 S10       30.04F
ABILENE-DYESS  CLOUDY    74  69  87 S7        30.02F
CISCO          CLOUDY    72  68  88 S9        30.05F
GRAHAM         MOCLDY    74  71  91 CALM      30.00S
MINERAL WELLS  MOCLDY    71  69  93 S5        29.99F
STEPHENVILLE   PTCLDY    72  69  91 CALM      30.05S
COMANCHE       PTCLDY    71  71 100 S3        30.04S
BROWNWOOD      MOCLDY    72  68  88 SE5       30.04F
COLEMAN        MOCLDY    73  67  82 SE5       30.05F
$$

TXZ143>147-156>162-174-175-270900-
CENTRAL TEXAS

CITY           SKY/WX    TMP DP  RH WIND       PRES   REMARKS
WACO           MOCLDY    74  73  97 W3        29.99F
WACO-MCGREGOR  PTCLDY    73  72  96 SW3       30.00F
HILLSBORO      PTCLDY    71  70  98 CALM      30.00S FOG
CORSICANA      PTCLDY    74  71  91 NW3       30.00R
MEXIA          PTCLDY    72  71  98 CALM      29.98S
HEARNE         PTCLDY    73  72  98 MISG      29.98F FOG
CAMERON        PTCLDY    74  72  95 CALM      29.97F
TEMPLE         CLEAR     73  71  93 SW3       30.00F
KILLEEN        CLEAR     74  71  92 CALM      30.00F
KILLEEN-SKYLRK CLEAR     72  71  97 SW5       30.01F
FORT HOOD      CLEAR     72  70  94 CALM      29.98F
HAMILTON       PTCLDY    72  72 100 SW5       30.03F
LAMPASAS       CLEAR     71  70  97 CALM      30.02S
$$

TXZ095>097-106>112-122>126-135>138-148>153-164>167-270900-
EAST TEXAS

CITY           SKY/WX    TMP DP  RH WIND       PRES   REMARKS
PARIS          CLOUDY    73  70  88 E6        30.01S
SULPHUR SPRNGS CLEAR     74  74  98 CALM      30.03R
MOUNT PLEASANT MOCLDY    76  76 100 NW3       30.01S
GILMER         PTCLDY    73  73  99 CALM      30.00R THUNDER FOG
TYLER          CLOUDY    74  71  91 CALM      30.00R
LONGVIEW       CLOUDY    74  74 100 CALM      29.97S
MARSHALL         N/A    N/A N/A N/A MISG        N/A
ATHENS         PTCLDY    72  72 100 CALM      29.99R FOG
PALESTINE      CLOUDY    74  74 100 CALM      30.00R FOG
JACKSONVILLE   CLOUDY    73  73  99 CALM      30.02R
HENDERSON      CLOUDY    72  72 100 CALM      30.00R FOG
CENTER         CLOUDY    75  73  96 CALM      29.99S
NACOGDOCHES    CLOUDY   N/A N/A N/A CALM      29.96S
LUFKIN         CLOUDY    74  73  97 CALM      29.96S
$$

SUPPLEMENTAL OBSERVATIONS (CENTRAL)

CITY           SKY/WX    TMP DP  RH WIND       PRES   REMARKS
$$

SUPPLEMENTAL OBSERVATIONS (WEST)

CITY           SKY/WX    TMP DP  RH WIND       PRES   REMARKS
$$

SUPPLEMENTAL OBSERVATIONS (EAST)

CITY           SKY/WX    TMP DP  RH WIND       PRES   REMARKS
$$

SUPPLEMENTAL OBSERVATIONS ARE A COLLECTION OF AUTOMATED INSTRUMENTS
THAT ARE MAINTAINED BY A VARIETY OF FEDERAL AND STATE AGENCIES.
CERTAIN ELEMENTS...SUCH AS HUMIDITY VALUES AND SUSTAINED WIND
SPEEDS...MAY BE APPROXIMATED.





USA.gov is the U.S. government's official web portal to all federal, state and local government web resources and services.